| time (UTC) | temp F | wind direction | speed MPH | gust MPH | rain 1hr in | rain 24hr in | rain mn in | humidity % | barometer mb |
| 20260502160209 | 46 | 245 | 6.0 | 7.0 | 0.00 | 0.00 | 0.00 | 53 | 1016.0 |
| 20260502152210 | 46 | 245 | 3.0 | 7.0 | 0.00 | 0.00 | 0.00 | 50 | 1016.0 |
| 20260502151710 | 46 | 245 | 4.0 | 6.0 | 0.00 | 0.00 | 0.00 | 46 | 1016.0 |
| 20260502151209 | 48 | 245 | 4.0 | 6.0 | 0.00 | 0.00 | 0.00 | 48 | 1016.0 |
| 20260502150710 | 47 | 245 | 5.0 | 5.0 | 0.00 | 0.00 | 0.00 | 47 | 1016.0 |
| 20260502150209 | 46 | 245 | 2.0 | 3.0 | 0.00 | 0.00 | 0.00 | 48 | 1016.0 |
| 20260502130709 | 41 | 245 | 4.0 | 6.0 | 0.00 | 0.00 | 0.00 | 64 | 1017.0 |
| 20260502130210 | 41 | 245 | 2.0 | 5.0 | 0.00 | 0.00 | 0.00 | 65 | 1017.0 |
| 20260502123709 | 40 | 245 | 3.0 | 4.0 | 0.00 | 0.00 | 0.00 | 69 | 1017.0 |
| 20260502123209 | 39 | 245 | 3.0 | 8.0 | 0.00 | 0.00 | 0.00 | 68 | 1017.0 |
| 20260502122709 | 39 | 245 | 4.0 | 6.0 | 0.00 | 0.00 | 0.00 | 70 | 1017.0 |
| 20260502122209 | 39 | 245 | 6.0 | 6.0 | 0.00 | 0.00 | 0.00 | 73 | 1017.0 |
| 20260502121709 | 38 | 245 | 4.0 | 6.0 | 0.00 | 0.00 | 0.00 | 75 | 1017.0 |
| 20260502121209 | 38 | 245 | 2.0 | 3.0 | 0.00 | 0.00 | 0.00 | 75 | 1017.0 |
| 20260502120709 | 38 | 245 | 3.0 | 5.0 | 0.00 | 0.00 | 0.00 | 76 | 1017.0 |
| 20260502120210 | 37 | 245 | 2.0 | 5.0 | 0.00 | 0.00 | 0.00 | 75 | 1017.0 |
| 20260502115709 | 37 | 245 | 7.0 | 7.0 | 0.00 | 0.00 | 0.00 | 75 | 1017.0 |
| 20260502115209 | 37 | 245 | 1.0 | 3.0 | 0.00 | 0.00 | 0.00 | 77 | 1017.0 |
| 20260502114709 | 37 | 245 | 1.0 | 4.0 | 0.00 | 0.00 | 0.00 | 77 | 1017.0 |
| 20260502114209 | 37 | 245 | 2.0 | 3.0 | 0.00 | 0.00 | 0.00 | 77 | 1017.0 |
| 20260502113709 | 36 | 245 | 2.0 | 3.0 | 0.00 | 0.00 | 0.00 | 78 | 1017.0 |
| 20260502113209 | 36 | 245 | 0.0 | 2.0 | 0.00 | 0.00 | 0.00 | 78 | 1017.0 |
| 20260502112709 | 36 | 245 | 0.0 | 4.0 | 0.00 | 0.00 | 0.00 | 79 | 1016.0 |
| 20260502112209 | 36 | 245 | 0.0 | 4.0 | 0.00 | 0.00 | 0.00 | 80 | 1016.0 |
| 20260502111709 | 35 | 245 | 1.0 | 3.0 | 0.00 | 0.00 | 0.00 | 81 | 1016.0 |
| 20260502111209 | 35 | 245 | 1.0 | 3.0 | 0.00 | 0.00 | 0.00 | 82 | 1016.0 |
| 20260502110710 | 35 | 245 | 0.0 | 3.0 | 0.00 | 0.00 | 0.00 | 83 | 1016.0 |
| 20260502110209 | 34 | 245 | 2.0 | 2.0 | 0.00 | 0.00 | 0.00 | 83 | 1016.0 |
| 20260502105709 | 34 | 245 | 1.0 | 1.0 | 0.00 | 0.00 | 0.00 | 84 | 1016.0 |
| 20260502105211 | 34 | 245 | 1.0 | 1.0 | 0.00 | 0.00 | 0.00 | 85 | 1016.0 |
| 20260502104709 | 34 | 245 | 0.0 | 1.0 | 0.00 | 0.00 | 0.00 | 85 | 1016.0 |
| 20260502104209 | 33 | 245 | 0.0 | 0.0 | 0.00 | 0.00 | 0.00 | 86 | 1016.0 |
| 20260502103709 | 33 | 245 | 0.0 | 1.0 | 0.00 | 0.00 | 0.00 | 85 | 1016.0 |
| 20260502103209 | 33 | 245 | 0.0 | 0.0 | 0.00 | 0.00 | 0.00 | 86 | 1016.0 |
| 20260502102709 | 33 | 245 | 0.0 | 1.0 | 0.00 | 0.00 | 0.00 | 86 | 1016.0 |
| 20260502102209 | 33 | 245 | 0.0 | 0.0 | 0.00 | 0.00 | 0.00 | 86 | 1016.0 |
| 20260502101709 | 33 | 245 | 0.0 | 0.0 | 0.00 | 0.00 | 0.00 | 86 | 1016.0 |
| 20260502101210 | 34 | 245 | 0.0 | 0.0 | 0.00 | 0.00 | 0.00 | 86 | 1016.0 |
| 20260502100710 | 34 | 245 | 0.0 | 2.0 | 0.00 | 0.00 | 0.00 | 86 | 1016.0 |
| 20260502100209 | 34 | 245 | 1.0 | 1.0 | 0.00 | 0.00 | 0.00 | 86 | 1016.0 |
| 20260502091209 | 34 | 245 | 1.0 | 2.0 | 0.00 | 0.00 | 0.00 | 85 | 1016.0 |
| 20260502090711 | 34 | 245 | 3.0 | 3.0 | 0.00 | 0.00 | 0.00 | 85 | 1015.0 |
| 20260502090211 | 34 | 245 | 0.0 | 3.0 | 0.00 | 0.00 | 0.00 | 85 | 1015.0 |
| 20260502071210 | 35 | 245 | 1.0 | 1.0 | 0.00 | 0.00 | 0.00 | 80 | 1015.0 |
| 20260502070709 | 36 | 245 | 0.0 | 2.0 | 0.00 | 0.00 | 0.00 | 80 | 1015.0 |
| 20260502070210 | 36 | 245 | 1.0 | 1.0 | 0.00 | 0.00 | 0.00 | 80 | 1015.0 |
| 20260502065709 | 36 | 245 | 2.0 | 2.0 | 0.00 | 0.00 | 0.00 | 80 | 1015.0 |
| 20260502065209 | 36 | 245 | 2.0 | 2.0 | 0.00 | 0.00 | 0.00 | 80 | 1015.0 |
| 20260502064710 | 36 | 245 | 1.0 | 2.0 | 0.00 | 0.00 | 0.00 | 80 | 1015.0 |
| 20260502064209 | 36 | 245 | 1.0 | 2.0 | 0.00 | 0.00 | 0.00 | 80 | 1015.0 |
| 20260502063710 | 36 | 245 | 0.0 | 1.0 | 0.00 | 0.00 | 0.00 | 80 | 1015.0 |
| 20260502063210 | 36 | 245 | 1.0 | 3.0 | 0.00 | 0.00 | 0.00 | 79 | 1015.0 |
| 20260502062709 | 36 | 245 | 0.0 | 2.0 | 0.00 | 0.00 | 0.00 | 79 | 1015.0 |
| 20260502062209 | 36 | 245 | 1.0 | 2.0 | 0.00 | 0.00 | 0.00 | 79 | 1015.0 |
| 20260502061709 | 36 | 245 | 0.0 | 2.0 | 0.00 | 0.00 | 0.00 | 79 | 1015.0 |
| 20260502061209 | 36 | 245 | 0.0 | 3.0 | 0.00 | 0.00 | 0.00 | 79 | 1015.0 |
| 20260502060709 | 36 | 245 | 0.0 | 3.0 | 0.00 | 0.00 | 0.00 | 79 | 1015.0 |
| 20260502060210 | 36 | 245 | 1.0 | 2.0 | 0.00 | 0.00 | 0.00 | 79 | 1015.0 |
| 20260502055710 | 36 | 245 | 0.0 | 2.0 | 0.00 | 0.00 | 0.00 | 78 | 1015.0 |
| 20260502055209 | 37 | 245 | 0.0 | 1.0 | 0.00 | 0.00 | 0.00 | 78 | 1015.0 |
| 20260502054709 | 37 | 245 | 0.0 | 1.0 | 0.00 | 0.00 | 0.00 | 78 | 1015.0 |
| 20260502054209 | 37 | 245 | 0.0 | 0.0 | 0.00 | 0.00 | 0.00 | 77 | 1015.0 |
| 20260502053709 | 37 | 245 | 2.0 | 2.0 | 0.00 | 0.00 | 0.00 | 77 | 1015.0 |
| 20260502053209 | 37 | 245 | 1.0 | 1.0 | 0.00 | 0.00 | 0.00 | 77 | 1015.0 |
| 20260502052709 | 37 | 245 | 1.0 | 1.0 | 0.00 | 0.00 | 0.00 | 76 | 1015.0 |
| 20260502052209 | 38 | 245 | 3.0 | 3.0 | 0.00 | 0.00 | 0.00 | 76 | 1015.0 |
| 20260502051710 | 38 | 245 | 0.0 | 2.0 | 0.00 | 0.00 | 0.00 | 75 | 1015.0 |
| 20260502051209 | 38 | 245 | 0.0 | 0.0 | 0.00 | 0.00 | 0.00 | 75 | 1015.0 |
| 20260502050710 | 38 | 245 | 1.0 | 1.0 | 0.00 | 0.00 | 0.00 | 74 | 1015.0 |
| 20260502050209 | 38 | 245 | 2.0 | 2.0 | 0.00 | 0.00 | 0.00 | 73 | 1015.0 |
| 20260502045709 | 39 | 245 | 0.0 | 5.0 | 0.00 | 0.00 | 0.00 | 73 | 1015.0 |
| 20260502045209 | 39 | 245 | 1.0 | 2.0 | 0.00 | 0.00 | 0.00 | 73 | 1015.0 |
| 20260502044709 | 39 | 245 | 1.0 | 5.0 | 0.00 | 0.00 | 0.00 | 72 | 1015.0 |
| 20260502044210 | 39 | 245 | 3.0 | 8.0 | 0.00 | 0.00 | 0.00 | 71 | 1015.0 |
| 20260502043710 | 39 | 245 | 3.0 | 4.0 | 0.00 | 0.00 | 0.00 | 71 | 1015.0 |
| 20260502043209 | 39 | 245 | 4.0 | 5.0 | 0.00 | 0.00 | 0.00 | 71 | 1015.0 |
| 20260502042710 | 40 | 245 | 2.0 | 6.0 | 0.00 | 0.00 | 0.00 | 69 | 1015.0 |
| 20260502042209 | 40 | 245 | 3.0 | 6.0 | 0.00 | 0.00 | 0.00 | 69 | 1015.0 |
| 20260502041709 | 40 | 245 | 6.0 | 8.0 | 0.00 | 0.00 | 0.00 | 69 | 1015.0 |
| 20260502041209 | 41 | 245 | 4.0 | 8.0 | 0.00 | 0.00 | 0.00 | 68 | 1015.0 |
| 20260502040709 | 41 | 245 | 2.0 | 9.0 | 0.00 | 0.00 | 0.00 | 70 | 1015.0 |
| 20260502040209 | 41 | 245 | 3.0 | 3.0 | 0.00 | 0.00 | 0.06 | 73 | 1015.0 |
| 20260502035709 | 41 | 245 | 0.0 | 2.0 | 0.00 | 0.00 | 0.06 | 74 | 1015.0 |
| 20260502035209 | 41 | 245 | 2.0 | 2.0 | 0.00 | 0.00 | 0.06 | 75 | 1014.0 |
| 20260502034709 | 41 | 245 | 2.0 | 4.0 | 0.00 | 0.00 | 0.06 | 75 | 1015.0 |
| 20260502034209 | 42 | 245 | 2.0 | 2.0 | 0.00 | 0.00 | 0.06 | 77 | 1014.0 |
| 20260502033710 | 42 | 245 | 2.0 | 6.0 | 0.00 | 0.00 | 0.06 | 77 | 1014.0 |
| 20260502033210 | 42 | 245 | 0.0 | 2.0 | 0.00 | 0.00 | 0.06 | 80 | 1014.0 |
| 20260502032710 | 42 | 245 | 1.0 | 1.0 | 0.00 | 0.00 | 0.06 | 80 | 1014.0 |
| 20260502032209 | 42 | 245 | 1.0 | 3.0 | 0.00 | 0.00 | 0.06 | 80 | 1014.0 |
| 20260502031709 | 42 | 245 | 1.0 | 3.0 | 0.00 | 0.00 | 0.06 | 81 | 1014.0 |
| 20260502031209 | 42 | 245 | 1.0 | 2.0 | 0.00 | 0.00 | 0.06 | 82 | 1014.0 |
| 20260502030709 | 42 | 245 | 1.0 | 3.0 | 0.00 | 0.00 | 0.06 | 82 | 1014.0 |
| 20260502030209 | 42 | 245 | 1.0 | 4.0 | 0.00 | 0.00 | 0.06 | 82 | 1014.0 |
| 20260502025709 | 42 | 245 | 2.0 | 3.0 | 0.00 | 0.00 | 0.06 | 82 | 1014.0 |
| 20260502025209 | 42 | 245 | 0.0 | 4.0 | 0.00 | 0.00 | 0.06 | 82 | 1015.0 |
| 20260502024709 | 42 | 245 | 1.0 | 5.0 | 0.00 | 0.00 | 0.06 | 82 | 1014.0 |
| 20260502024209 | 42 | 245 | 3.0 | 3.0 | 0.00 | 0.00 | 0.06 | 82 | 1014.0 |
| 20260502023709 | 42 | 245 | 2.0 | 3.0 | 0.00 | 0.00 | 0.06 | 81 | 1015.0 |
| 20260502023209 | 42 | 245 | 2.0 | 2.0 | 0.00 | 0.00 | 0.06 | 81 | 1014.0 |
| 20260502022710 | 42 | 245 | 2.0 | 2.0 | 0.00 | 0.00 | 0.06 | 81 | 1014.0 |
| 20260502022209 | 42 | 245 | 3.0 | 3.0 | 0.00 | 0.00 | 0.06 | 81 | 1015.0 |
| 20260502021710 | 42 | 245 | 1.0 | 4.0 | 0.00 | 0.00 | 0.06 | 80 | 1014.0 |
| 20260502021210 | 42 | 245 | 3.0 | 4.0 | 0.00 | 0.00 | 0.06 | 80 | 1014.0 |
| 20260502020712 | 42 | 245 | 2.0 | 3.0 | 0.00 | 0.00 | 0.06 | 80 | 1014.0 |
| 20260502020209 | 42 | 245 | 0.0 | 3.0 | 0.00 | 0.00 | 0.06 | 80 | 1014.0 |
| 20260502015709 | 42 | 245 | 3.0 | 3.0 | 0.00 | 0.00 | 0.06 | 79 | 1014.0 |
| 20260502015209 | 42 | 245 | 2.0 | 5.0 | 0.00 | 0.00 | 0.06 | 79 | 1014.0 |
| 20260502014709 | 42 | 245 | 0.0 | 3.0 | 0.00 | 0.00 | 0.06 | 79 | 1014.0 |
| 20260502014209 | 42 | 245 | 1.0 | 2.0 | 0.00 | 0.00 | 0.06 | 78 | 1014.0 |
| 20260502013711 | 42 | 245 | 2.0 | 6.0 | 0.00 | 0.00 | 0.06 | 78 | 1014.0 |
| 20260502013209 | 42 | 245 | 3.0 | 4.0 | 0.00 | 0.00 | 0.06 | 78 | 1014.0 |
| 20260502012709 | 42 | 245 | 1.0 | 3.0 | 0.00 | 0.00 | 0.06 | 79 | 1014.0 |
| 20260502012209 | 42 | 245 | 4.0 | 4.0 | 0.00 | 0.00 | 0.06 | 81 | 1014.0 |
| 20260502011709 | 42 | 245 | 1.0 | 4.0 | 0.00 | 0.00 | 0.06 | 81 | 1014.0 |
| 20260502011209 | 42 | 245 | 4.0 | 4.0 | 0.00 | 0.00 | 0.06 | 82 | 1014.0 |
| 20260502010709 | 42 | 245 | 3.0 | 3.0 | 0.00 | 0.00 | 0.06 | 82 | 1014.0 |
| 20260502010210 | 43 | 245 | 2.0 | 4.0 | 0.00 | 0.00 | 0.06 | 82 | 1014.0 |
| 20260502005709 | 43 | 245 | 1.0 | 3.0 | 0.00 | 0.00 | 0.06 | 83 | 1014.0 |
| 20260502005210 | 42 | 245 | 1.0 | 3.0 | 0.00 | 0.00 | 0.06 | 82 | 1014.0 |
| 20260502004709 | 43 | 245 | 1.0 | 3.0 | 0.00 | 0.00 | 0.06 | 83 | 1014.0 |
| 20260502004209 | 43 | 245 | 1.0 | 3.0 | 0.00 | 0.00 | 0.06 | 82 | 1014.0 |
| 20260502003709 | 43 | 245 | 1.0 | 4.0 | 0.00 | 0.00 | 0.06 | 82 | 1014.0 |
| 20260502003209 | 43 | 245 | 1.0 | 4.0 | 0.00 | 0.00 | 0.06 | 81 | 1014.0 |
| 20260502002709 | 43 | 245 | 1.0 | 4.0 | 0.00 | 0.00 | 0.06 | 81 | 1013.0 |
| 20260502002209 | 43 | 245 | 4.0 | 6.0 | 0.00 | 0.00 | 0.06 | 79 | 1013.0 |
| 20260502001710 | 43 | 245 | 2.0 | 4.0 | 0.00 | 0.00 | 0.06 | 80 | 1013.0 |
| 20260502001210 | 44 | 245 | 3.0 | 4.0 | 0.00 | 0.00 | 0.06 | 80 | 1013.0 |
| 20260502000709 | 44 | 245 | 2.0 | 4.0 | 0.00 | 0.00 | 0.06 | 79 | 1013.0 |
| 20260502000211 | 44 | 245 | 2.0 | 3.0 | 0.00 | 0.00 | 0.06 | 78 | 1013.0 |
| 20260501235709 | 44 | 245 | 2.0 | 4.0 | 0.00 | 0.00 | 0.06 | 78 | 1013.0 |
| 20260501235209 | 44 | 245 | 3.0 | 3.0 | 0.00 | 0.00 | 0.06 | 78 | 1013.0 |
| 20260501234709 | 45 | 245 | 2.0 | 3.0 | 0.00 | 0.00 | 0.06 | 77 | 1013.0 |
| 20260501234209 | 45 | 245 | 1.0 | 3.0 | 0.00 | 0.00 | 0.06 | 77 | 1013.0 |
| 20260501233710 | 45 | 245 | 1.0 | 3.0 | 0.00 | 0.00 | 0.06 | 76 | 1013.0 |
| 20260501233209 | 45 | 245 | 2.0 | 3.0 | 0.00 | 0.00 | 0.06 | 77 | 1013.0 |
| 20260501232709 | 45 | 245 | 3.0 | 3.0 | 0.00 | 0.00 | 0.06 | 75 | 1013.0 |
| 20260501232209 | 45 | 245 | 1.0 | 3.0 | 0.00 | 0.00 | 0.06 | 76 | 1013.0 |
| 20260501231709 | 45 | 245 | 3.0 | 5.0 | 0.00 | 0.00 | 0.06 | 75 | 1013.0 |
| 20260501231210 | 45 | 245 | 2.0 | 3.0 | 0.00 | 0.00 | 0.06 | 75 | 1013.0 |
| 20260501230710 | 46 | 245 | 5.0 | 5.0 | 0.00 | 0.00 | 0.06 | 74 | 1013.0 |
| 20260501230209 | 46 | 245 | 3.0 | 3.0 | 0.00 | 0.00 | 0.06 | 74 | 1013.0 |
| 20260501225710 | 46 | 245 | 2.0 | 2.0 | 0.00 | 0.00 | 0.06 | 75 | 1013.0 |
| 20260501225209 | 46 | 245 | 3.0 | 3.0 | 0.00 | 0.00 | 0.06 | 74 | 1013.0 |
| 20260501224710 | 46 | 245 | 2.0 | 5.0 | 0.00 | 0.00 | 0.06 | 72 | 1013.0 |
| 20260501224210 | 47 | 245 | 1.0 | 4.0 | 0.00 | 0.00 | 0.06 | 70 | 1013.0 |
| 20260501223711 | 47 | 245 | 0.0 | 4.0 | 0.00 | 0.00 | 0.06 | 70 | 1013.0 |
| 20260501223209 | 47 | 245 | 3.0 | 5.0 | 0.00 | 0.00 | 0.06 | 68 | 1013.0 |
| 20260501222709 | 48 | 245 | 1.0 | 3.0 | 0.00 | 0.00 | 0.06 | 70 | 1013.0 |
| 20260501222210 | 48 | 245 | 0.0 | 5.0 | 0.00 | 0.00 | 0.06 | 69 | 1013.0 |
| 20260501221709 | 48 | 245 | 2.0 | 3.0 | 0.00 | 0.00 | 0.06 | 70 | 1013.0 |
| 20260501221212 | 49 | 245 | 3.0 | 4.0 | 0.00 | 0.00 | 0.06 | 71 | 1012.0 |
| 20260501220709 | 49 | 245 | 2.0 | 3.0 | 0.00 | 0.00 | 0.06 | 69 | 1012.0 |
| 20260501220209 | 49 | 245 | 0.0 | 1.0 | 0.00 | 0.00 | 0.06 | 67 | 1012.0 |
| 20260501215709 | 49 | 245 | 1.0 | 3.0 | 0.00 | 0.00 | 0.06 | 65 | 1012.0 |
| 20260501215209 | 49 | 245 | 2.0 | 4.0 | 0.00 | 0.00 | 0.06 | 65 | 1012.0 |
| 20260501214710 | 49 | 245 | 2.0 | 3.0 | 0.00 | 0.00 | 0.06 | 66 | 1012.0 |
| 20260501214209 | 49 | 245 | 2.0 | 3.0 | 0.00 | 0.00 | 0.06 | 69 | 1012.0 |
| 20260501213709 | 49 | 245 | 2.0 | 3.0 | 0.00 | 0.00 | 0.06 | 70 | 1012.0 |
| 20260501213209 | 49 | 245 | 1.0 | 3.0 | 0.00 | 0.00 | 0.06 | 68 | 1012.0 |
| 20260501212709 | 49 | 245 | 2.0 | 3.0 | 0.00 | 0.00 | 0.06 | 69 | 1012.0 |
| 20260501212209 | 48 | 245 | 1.0 | 3.0 | 0.00 | 0.00 | 0.06 | 71 | 1012.0 |
| 20260501211709 | 48 | 245 | 1.0 | 3.0 | 0.00 | 0.00 | 0.06 | 72 | 1012.0 |
| 20260501211210 | 48 | 245 | 1.0 | 3.0 | 0.00 | 0.00 | 0.06 | 72 | 1012.0 |
| 20260501210709 | 48 | 245 | 2.0 | 2.0 | 0.00 | 0.00 | 0.06 | 72 | 1012.0 |
| 20260501210213 | 47 | 245 | 2.0 | 4.0 | 0.00 | 0.00 | 0.06 | 72 | 1012.0 |
| 20260501205710 | 47 | 245 | 2.0 | 3.0 | 0.00 | 0.00 | 0.06 | 70 | 1012.0 |
| 20260501205209 | 48 | 245 | 1.0 | 4.0 | 0.00 | 0.00 | 0.06 | 72 | 1012.0 |
| 20260501204710 | 47 | 245 | 2.0 | 2.0 | 0.00 | 0.00 | 0.06 | 74 | 1012.0 |
| 20260501204209 | 47 | 245 | 1.0 | 3.0 | 0.00 | 0.00 | 0.06 | 73 | 1012.0 |
| 20260501203710 | 47 | 245 | 1.0 | 1.0 | 0.00 | 0.00 | 0.06 | 76 | 1012.0 |
| 20260501203210 | 47 | 245 | 3.0 | 4.0 | 0.00 | 0.00 | 0.06 | 74 | 1012.0 |
| 20260501202710 | 47 | 245 | 1.0 | 5.0 | 0.00 | 0.00 | 0.06 | 75 | 1012.0 |
| 20260501202209 | 47 | 245 | 2.0 | 8.0 | 0.00 | 0.00 | 0.06 | 76 | 1012.0 |
| 20260501201709 | 47 | 245 | 2.0 | 2.0 | 0.00 | 0.00 | 0.06 | 75 | 1012.0 |
| 20260501201210 | 47 | 245 | 1.0 | 4.0 | 0.00 | 0.00 | 0.06 | 74 | 1012.0 |
| 20260501200710 | 47 | 245 | 2.0 | 5.0 | 0.00 | 0.00 | 0.06 | 77 | 1012.0 |
| 20260501200210 | 47 | 245 | 5.0 | 5.0 | 0.00 | 0.00 | 0.06 | 78 | 1012.0 |
| 20260501195709 | 47 | 245 | 1.0 | 5.0 | 0.00 | 0.00 | 0.06 | 80 | 1012.0 |
| 20260501195210 | 46 | 245 | 1.0 | 4.0 | 0.00 | 0.00 | 0.06 | 80 | 1012.0 |
| 20260501194709 | 46 | 245 | 4.0 | 5.0 | 0.00 | 0.00 | 0.06 | 80 | 1013.0 |
| 20260501194209 | 46 | 245 | 1.0 | 2.0 | 0.01 | 0.00 | 0.06 | 81 | 1013.0 |
| 20260501193709 | 46 | 245 | 0.0 | 4.0 | 0.01 | 0.00 | 0.06 | 80 | 1013.0 |
| 20260501193210 | 46 | 245 | 1.0 | 4.0 | 0.01 | 0.00 | 0.06 | 81 | 1013.0 |
| 20260501192710 | 46 | 245 | 3.0 | 4.0 | 0.01 | 0.00 | 0.06 | 82 | 1013.0 |
| 20260501192210 | 45 | 245 | 2.0 | 4.0 | 0.01 | 0.00 | 0.06 | 80 | 1013.0 |
| 20260501191711 | 45 | 245 | 0.0 | 1.0 | 0.01 | 0.00 | 0.06 | 84 | 1013.0 |
| 20260501191209 | 45 | 245 | 1.0 | 2.0 | 0.01 | 0.00 | 0.06 | 85 | 1013.0 |
| 20260501190709 | 44 | 245 | 0.0 | 0.0 | 0.01 | 0.00 | 0.06 | 86 | 1013.0 |
| 20260501190210 | 44 | 245 | 1.0 | 1.0 | 0.01 | 0.00 | 0.06 | 87 | 1013.0 |
| 20260501185710 | 44 | 245 | 0.0 | 2.0 | 0.01 | 0.00 | 0.06 | 88 | 1013.0 |
| 20260501185209 | 44 | 245 | 3.0 | 3.0 | 0.01 | 0.00 | 0.06 | 89 | 1013.0 |
| 20260501184710 | 44 | 245 | 2.0 | 2.0 | 0.00 | 0.00 | 0.06 | 89 | 1013.0 |
| 20260501184212 | 43 | 245 | 1.0 | 1.0 | 0.00 | 0.00 | 0.05 | 90 | 1013.0 |
| 20260501183709 | 43 | 245 | 1.0 | 1.0 | 0.00 | 0.00 | 0.05 | 90 | 1013.0 |
| 20260501183209 | 43 | 245 | 1.0 | 2.0 | 0.00 | 0.00 | 0.05 | 89 | 1013.0 |
| 20260501182710 | 42 | 245 | 1.0 | 2.0 | 0.01 | 0.00 | 0.05 | 89 | 1013.0 |
| 20260501182210 | 43 | 245 | 3.0 | 3.0 | 0.01 | 0.00 | 0.05 | 90 | 1013.0 |
| 20260501181711 | 43 | 245 | 0.0 | 2.0 | 0.01 | 0.00 | 0.05 | 90 | 1013.0 |
| 20260501181210 | 42 | 245 | 2.0 | 2.0 | 0.01 | 0.00 | 0.05 | 89 | 1013.0 |
| 20260501180710 | 42 | 245 | 0.0 | 2.0 | 0.01 | 0.00 | 0.05 | 89 | 1014.0 |
| 20260501180209 | 42 | 245 | 3.0 | 3.0 | 0.01 | 0.00 | 0.05 | 89 | 1014.0 |
| 20260501175709 | 42 | 245 | 0.0 | 3.0 | 0.01 | 0.00 | 0.05 | 89 | 1013.0 |
| 20260501175209 | 42 | 245 | 2.0 | 2.0 | 0.01 | 0.00 | 0.05 | 90 | 1013.0 |
| 20260501174710 | 42 | 245 | 3.0 | 3.0 | 0.01 | 0.00 | 0.05 | 88 | 1013.0 |
| 20260501174209 | 42 | 245 | 3.0 | 3.0 | 0.01 | 0.00 | 0.05 | 88 | 1013.0 |
| 20260501173709 | 42 | 245 | 3.0 | 3.0 | 0.01 | 0.00 | 0.05 | 88 | 1013.0 |
| 20260501173209 | 42 | 245 | 1.0 | 1.0 | 0.01 | 0.00 | 0.05 | 87 | 1013.0 |
| 20260501172709 | 42 | 245 | 1.0 | 2.0 | 0.00 | 0.00 | 0.04 | 87 | 1013.0 |
| 20260501172210 | 42 | 245 | 1.0 | 2.0 | 0.01 | 0.00 | 0.04 | 87 | 1014.0 |
| 20260501171709 | 42 | 245 | 0.0 | 0.0 | 0.01 | 0.00 | 0.04 | 87 | 1014.0 |
| 20260501171209 | 42 | 245 | 2.0 | 2.0 | 0.01 | 0.00 | 0.04 | 86 | 1014.0 |
| 20260501170710 | 42 | 245 | 0.0 | 2.0 | 0.01 | 0.00 | 0.04 | 87 | 1014.0 |
| 20260501170210 | 43 | 245 | 0.0 | 2.0 | 0.01 | 0.00 | 0.04 | 87 | 1014.0 |
| 20260501165710 | 42 | 245 | 1.0 | 3.0 | 0.01 | 0.00 | 0.04 | 87 | 1014.0 |
| 20260501165210 | 42 | 245 | 0.0 | 3.0 | 0.02 | 0.00 | 0.04 | 86 | 1014.0 |
| 20260501164709 | 42 | 245 | 1.0 | 3.0 | 0.02 | 0.00 | 0.04 | 87 | 1014.0 |
| 20260501164210 | 42 | 245 | 1.0 | 1.0 | 0.02 | 0.00 | 0.04 | 87 | 1014.0 |
| 20260501163710 | 42 | 245 | 0.0 | 0.0 | 0.02 | 0.00 | 0.04 | 88 | 1014.0 |
| 20260501163210 | 42 | 245 | 1.0 | 2.0 | 0.03 | 0.00 | 0.04 | 88 | 1014.0 |
| 20260501162710 | 42 | 245 | 1.0 | 2.0 | 0.02 | 0.00 | 0.04 | 88 | 1014.0 |
| 20260501162209 | 42 | 245 | 3.0 | 3.0 | 0.02 | 0.00 | 0.03 | 88 | 1014.0 |
| 20260501161710 | 42 | 245 | 1.0 | 2.0 | 0.03 | 0.00 | 0.03 | 88 | 1014.0 |
| 20260501161211 | 43 | 245 | 1.0 | 3.0 | 0.03 | 0.00 | 0.03 | 88 | 1014.0 |
| 20260501160710 | 42 | 245 | 0.0 | 3.0 | 0.03 | 0.00 | 0.03 | 88 | 1014.0 |